Weather History for GMTA - January, 2014

Change the Weather History Date:

Wednesday, January 8, 2014

  Actual Average Record
Temperature  
Mean Temperature 52 °F -  
Max Temperature 63 °F 60 °F 75 °F (1999)
Min Temperature 41 °F 45 °F 33 °F (2005)
Degree Days  
Heating Degree Days 13    
Growing Degree Days 2 (Base 50)    
Moisture  
Dew Point 46 °F    
Average Humidity 74    
Maximum Humidity 88    
Minimum Humidity 59    
Precipitation  
Precipitation 0.00 in - - ()
Sea Level Pressure  
Sea Level Pressure 30.20 in    
Wind  
Wind Speed 4 mph ()    
Max Wind Speed 9 mph    
Max Gust Speed -    
Visibility 6.4 miles    
Events      
Averages and records for this station are not official NWS values.
T = Trace of Precipitation, MM = Missing Value Source: Averaged Metar Reports

Daily Weather History Graph

Daily Weather History Graph

Search for Another Location

Airport or City:

Trip Planner

Search our weather history database for the weather conditions in past years. The results will help you decide how hot, cold, wet, or windy it might be!

Date:

Astronomy

Jan. 08, 2014 Rise Set
Actual Time 7:24 AM WET 5:19 PM WET
Civil Twilight 6:56 AM WET 5:47 PM WET
Nautical Twilight 6:25 AM WET 6:19 PM WET
Astronomical Twilight 5:54 AM WET 6:49 PM WET
Moon 11:57 AM WET (1/8) 12:23 AM WET (1/8)
Length of Visible Light 10h 51m
Length of Day
9h 55m
First Quarter, 53% of the Moon is Illuminated
Jan 8
First Quarter
Jan 16
Full
Jan 24
Last Quarter
Jan 30
New
Feb 6
First Quarter

Hourly Weather History & Observations

Time (WET) Temp. Windchill Dew Point Humidity Pressure Visibility Wind Dir Wind Speed Gust Speed Precip Events Conditions
12:00 AM 46 °F - 40 °F 74% 30.21 in 6 mi SSW 2.3 mph - -  
12:00 AM 46.4 °F - 41.0 °F 81% 30.21 in - SSW 2.3 mph - N/A   Clear
6:00 AM 43 °F - 38 °F 76% 30.19 in 6 mi SSE 4.6 mph - -   Clear
6:00 AM 42.8 °F 40.1 °F 37.4 °F 81% 30.18 in - SSE 4.6 mph - N/A   Clear
7:00 AM 42.8 °F - 35.6 °F 76% 30.18 in - SW 2.3 mph - N/A   Clear
8:00 AM 41.0 °F 35.2 °F 35.6 °F 81% 30.21 in 6.2 mi South 9.2 mph - N/A   Partly Cloudy
9:00 AM 53 °F - 43 °F 61% 30.23 in 6 mi SSW 2.3 mph - -   Scattered Clouds
9:00 AM 53.6 °F - 42.8 °F 67% 30.21 in 6.2 mi SSW 2.3 mph - N/A   Partly Cloudy
10:00 AM 60.8 °F - 46.4 °F 59% 30.24 in - SSE 2.3 mph - N/A   Clear
11:00 AM 60.8 °F - 50.0 °F 68% 30.24 in - NNW 2.3 mph - N/A   Clear
12:00 PM 62 °F - 52 °F 61% 30.23 in 6 mi NNE 6.9 mph - -   Scattered Clouds
12:00 PM 62.6 °F - 51.8 °F 68% 30.21 in 6.2 mi NNE 6.9 mph - N/A   Partly Cloudy
1:00 PM 62.6 °F - 53.6 °F 72% 30.18 in 6.2 mi North 6.9 mph - N/A   Partly Cloudy
2:00 PM 62.6 °F - 51.8 °F 68% 30.18 in 6.2 mi North 6.9 mph - N/A   Scattered Clouds
3:00 PM 62 °F - 52 °F 62% 30.18 in 9 mi North 6.9 mph - -   Scattered Clouds
3:00 PM 60.8 °F - 51.8 °F 72% 30.15 in 6.2 mi North 6.9 mph - N/A   Scattered Clouds
4:00 PM 60.8 °F - 51.8 °F 72% 30.18 in 6.2 mi North 6.9 mph - N/A   Scattered Clouds
5:00 PM 59.0 °F - 50.0 °F 72% 30.18 in 6.2 mi NNE 4.6 mph - N/A   Scattered Clouds
6:00 PM 55 °F - 48 °F 71% 30.19 in 9 mi East 2.3 mph - -   Scattered Clouds
6:00 PM 55.4 °F - 48.2 °F 77% 30.18 in 6.2 mi Variable 2.3 mph - N/A   Scattered Clouds
7:00 PM 51.8 °F - 46.4 °F 82% 30.18 in 6.2 mi Variable 2.3 mph - N/A   Scattered Clouds
8:00 PM 51.8 °F - 46.4 °F 82% 30.21 in 6.2 mi Variable 2.3 mph - N/A   Partly Cloudy
9:00 PM 50 °F - 46 °F 81% 30.22 in 6 mi SSE 2.3 mph - -   Scattered Clouds
9:00 PM 50.0 °F - 46.4 °F 87% 30.21 in 6.2 mi Variable 2.3 mph - N/A   Partly Cloudy
10:00 PM 53.6 °F - 48.2 °F 82% 30.21 in 6.2 mi Variable 2.3 mph - N/A   Partly Cloudy
11:00 PM 53.6 °F - 50.0 °F 88% 30.21 in 6.2 mi SW 4.6 mph - N/A   Partly Cloudy